User: anonymous   Login
Location: Eaton Estates
(41.3089°N, 82.0057°W)
Time: 23:20:10
(UTC+00:00)
Language:

ORBCOMM FM 118 - Orbit

View from above orbital plane
View from above orbital plane
View from above satellite
View from above satellite

Ground track
Ground track

The orbit data is extracted from the following two-line orbital elements,

1 41183U 15081E   23335.39764339  .00002196  00000-0  53041-3 0  9996
2 41183  47.0046  64.8487 0001170 135.6688 224.4290 14.56115809422307
Epoch (UTC): 01 December 2023 09:32:36
Eccentricity: 0.0001170
inclination: 47.0046°
perigee height: 705 km
apogee height: 706 km
right ascension of ascending node: 64.8487°
argument of perigee: 135.6688°
revolutions per day: 14.56115809
mean anomaly at epoch: 224.4290°
orbit number at epoch: 42230

The dashed part of the orbit path shows where the satellite is in the earth's shadow,  

DLR